DELTA 1 DEB, 7012

Orbit data source: Space-Track

DELTA 1 DEB, 7012 is space debris in SSO originally from a launch on Tue, 06 Nov 1973 UTC launched from the Air Force Western Test Range (AFWTR). Debris objects in space refer to the collection of defunct objects orbiting the Earth. Examples of debris include non-operational satellites, rocket bodies, and fragments generated from explosions, collisions, or faulty payload assembly.

Loading next visibility...
Identifier
7012, 1973-086C
Orbit
SSO
Country
Flag of USUS
Related business
Manufacturer
Unknown
Mission
Spacecraft
Bus & Motor
Unknown
Mass
Unknown
Launch date (UTC)
1973-11-06 (53 years ago)
Launch vehicle
Unknown
Launch site
Air Force Western Test Range (AFWTR)
Object type
Payload
Rocket body
Debris
Shape & HBR
Unknown shape, 0.3 m
Radar Cross Section
Medium (>0.1 m² and <1 m²)

Expand to show TLE details & history
Last TLE update: 4 hours ago

TLE from 4 hours ago
0 DELTA 1 DEB
1  7012U 73086C   26132.84038441  .00000034  00000-0  53005-3 0  9993
2  7012 101.7645  91.2146 0058757 192.3681 223.3720 12.47722018390062
Epoch: 2026-05-12T20:10Z
TLE epoch observation values (Epoch: 2026-05-12T20:10:09.213Z)
Latitude
53.67351°
Longitude
-98.3041°
Altitude
1,516.297 km
Speed
7.097 km/s
True Right ascension
04h 59m 22s
True Declination
53° 31' 30"
Sunlit
Object was in daylight at epoch
Visualization orbit readout
Latitude
Unknown
Longitude
Unknown
Altitude
Unknown
Speed
Unknown
Apparent Right ascension
Unknown
Apparent Declination
Unknown
Sunlit
N/A
Visualization observer readout
Local Sidereal Time
08:42:07
Azimuth
Unknown
Elevation
Unknown
Doppler factor
Unknown
Orbital elements
Apogee altitude
1,517.711 km
Perigee altitude
1,425.466 km
Semi-major axis
7,849.725 km
Eccentricity
0.00588
Inclination
101.7645°
RAAN
91.2146°
Arg. of periapsis
192.3681°
True anomaly
222.91208°
Mean anomaly
223.372°
Eccentric anomaly
223.14179°
Mean motion
3.12077 °/min
Orbital period
115.36 mins
BSTAR
0.00053005
Loading maneuver chart data...
Computing Atmospheric mass density...
Loading historical data...
Loading historical data...
Loading historical data...
Loading historical data...
Loading historical data...
Loading historical data...
Loading historical data...

Documentation

Showing up to 5 results
|